TimeEDT,TemperatureF,Dew PointF,Humidity,Sea Level PressureIn,VisibilityMPH,Wind Direction,Wind SpeedMPH,Gust SpeedMPH,PrecipitationIn,Events,Conditions,WindDirDegrees,DateUTC
12:53 AM,72.0,69.1,91,30.14,10.0,Calm,Calm,-,0.04,Rain,Light Rain,0,2013-07-10 04:53:00
1:20 AM,71.6,69.8,94,30.15,10.0,WSW,3.5,-,0.01,Rain,Light Rain,250,2013-07-10 05:20:00
1:53 AM,72.0,69.1,91,30.10,10.0,WSW,5.8,-,0.01,,Partly Cloudy,250,2013-07-10 05:53:00
2:53 AM,72.0,69.1,91,30.06,10.0,Calm,Calm,-,0.00,,Clear,0,2013-07-10 06:53:00
3:53 AM,71.1,69.1,93,30.08,10.0,SE,4.6,-,N/A,,Partly Cloudy,140,2013-07-10 07:53:00
3:59 AM,71.6,69.8,94,30.11,10.0,SSE,3.5,-,N/A,,Mostly Cloudy,150,2013-07-10 07:59:00
4:28 AM,71.6,69.8,94,30.12,10.0,SSE,5.8,-,N/A,,Overcast,160,2013-07-10 08:28:00
4:53 AM,71.1,69.1,93,30.09,10.0,SSW,5.8,-,N/A,,Overcast,200,2013-07-10 08:53:00
5:18 AM,71.6,68.0,88,30.11,10.0,South,5.8,-,N/A,,Mostly Cloudy,180,2013-07-10 09:18:00
5:48 AM,71.6,68.0,88,30.11,10.0,Calm,Calm,-,N/A,,Mostly Cloudy,0,2013-07-10 09:48:00
5:53 AM,71.1,68.0,90,30.08,10.0,Calm,Calm,-,N/A,,Mostly Cloudy,0,2013-07-10 09:53:00
6:24 AM,69.8,68.0,94,30.12,10.0,Calm,Calm,-,N/A,,Mostly Cloudy,0,2013-07-10 10:24:00
6:53 AM,71.1,68.0,90,30.08,10.0,West,3.5,-,N/A,,Mostly Cloudy,260,2013-07-10 10:53:00
7:29 AM,71.6,69.8,94,30.12,9.0,WNW,3.5,-,N/A,,Overcast,300,2013-07-10 11:29:00
7:53 AM,71.1,69.1,93,30.09,10.0,Calm,Calm,-,N/A,,Overcast,0,2013-07-10 11:53:00
8:53 AM,73.0,70.0,90,30.10,10.0,South,4.6,-,N/A,,Overcast,190,2013-07-10 12:53:00
9:11 AM,73.4,69.8,88,30.12,10.0,South,3.5,-,N/A,,Overcast,190,2013-07-10 13:11:00
9:53 AM,73.0,69.1,87,30.10,10.0,South,4.6,-,N/A,,Overcast,170,2013-07-10 13:53:00
10:53 AM,75.0,70.0,84,30.09,10.0,South,4.6,-,N/A,,Overcast,190,2013-07-10 14:53:00
11:53 AM,75.0,70.0,84,30.10,10.0,WSW,5.8,-,N/A,,Overcast,240,2013-07-10 15:53:00
12:53 PM,77.0,70.0,79,30.08,10.0,Variable,3.5,-,N/A,,Overcast,0,2013-07-10 16:53:00
1:50 PM,80.6,71.6,74,30.08,10.0,Variable,3.5,-,N/A,,Overcast,0,2013-07-10 17:50:00
1:53 PM,79.0,71.1,77,30.05,10.0,South,4.6,-,N/A,,Overcast,180,2013-07-10 17:53:00
2:53 PM,82.9,71.1,67,30.02,10.0,SSW,4.6,-,N/A,,Overcast,200,2013-07-10 18:53:00
3:29 PM,82.4,71.6,70,30.04,10.0,Variable,3.5,-,N/A,,Mostly Cloudy,0,2013-07-10 19:29:00
4:53 PM,84.9,71.1,63,29.98,10.0,SSE,5.8,-,N/A,,Mostly Cloudy,160,2013-07-10 20:53:00
5:32 PM,86.0,71.6,62,30.00,10.0,SSW,6.9,-,N/A,,Mostly Cloudy,200,2013-07-10 21:32:00
5:44 PM,87.8,71.6,58,30.00,10.0,WSW,9.2,-,N/A,,Mostly Cloudy,250,2013-07-10 21:44:00
5:53 PM,86.0,71.1,61,29.97,10.0,South,10.4,-,N/A,,Mostly Cloudy,190,2013-07-10 21:53:00
6:53 PM,82.0,75.0,79,29.98,9.0,South,6.9,-,0.03,Rain,Light Rain,170,2013-07-10 22:53:00
7:01 PM,80.6,75.2,84,30.00,10.0,South,8.1,-,0.00,,Overcast,180,2013-07-10 23:01:00
7:28 PM,78.8,73.4,83,30.01,8.0,SSW,10.4,25.3,0.01,Rain,Light Rain,210,2013-07-10 23:28:00
7:31 PM,77.0,71.6,83,30.01,1.5,South,18.4,25.3,0.20,Rain,Heavy Rain,180,2013-07-10 23:31:00
7:37 PM,75.2,71.6,89,30.02,0.8,Variable,4.6,24.2,0.27,Rain,Heavy Rain,0,2013-07-10 23:37:00
7:43 PM,75.2,69.8,83,30.03,5.0,ESE,3.5,-,0.27,Rain,Light Rain,110,2013-07-10 23:43:00
7:53 PM,75.9,71.1,85,29.99,10.0,South,6.9,-,0.27,,Scattered Clouds,190,2013-07-10 23:53:00
8:53 PM,75.0,71.1,87,30.00,10.0,West,3.5,-,N/A,,Clear,270,2013-07-11 00:53:00
9:53 PM,73.9,70.0,87,30.01,10.0,South,6.9,-,N/A,,Clear,180,2013-07-11 01:53:00
10:53 PM,73.9,70.0,87,30.01,10.0,SW,3.5,-,N/A,,Overcast,230,2013-07-11 02:53:00
11:02 PM,73.4,71.6,94,30.04,10.0,Calm,Calm,-,N/A,,Overcast,0,2013-07-11 03:02:00
11:14 PM,75.2,71.6,89,30.04,10.0,West,3.5,-,N/A,,Overcast,260,2013-07-11 03:14:00
11:53 PM,75.0,70.0,84,29.99,10.0,Calm,Calm,-,N/A,,Mostly Cloudy,0,2013-07-11 03:53:00